Simultaneous Nadir Overpasses (SNOs) Predictions

Prediction of SNOs between AQUA and NPP Satellite Orbit:

Table of predicted SNOs for the next 14.0 days since TLE Epoch: 5/23/2015
Index Date (AQUA) Time (AQUA) Lat,Lon (AQUA) SZA (AQUA ) Date (NPP) Time (NPP) Lat,Lon (NPP) SZA (NPP ) Distance(km) Time Diff (sec)
1 05/24/2015 19:23:17 -68.93, -64.95 95.71 05/24/2015 19:22:36 -68.94, -64.91 95.69 1.53 41
2 05/24/2015 20:11:55 71.51, 106.42 81.61 05/24/2015 20:12:31 71.50, 106.39 81.58 1.09 36
3 05/27/2015 11:39:28 -70.08, 52.46 97.34 05/27/2015 11:39:09 -70.09, 52.51 97.34 2.03 19
4 05/27/2015 12:28:10 72.41,-136.14 80.21 05/27/2015 12:29:08 72.41,-136.14 80.15 0.06 58
5 05/30/2015 03:07:18 67.41, -2.65 85.03 05/30/2015 03:06:06 67.42, -2.62 85.09 1.40 72
6 05/30/2015
